Location: *
(2.1580°N, 98.9300°E)
Time: 01:00:00
(UTC+00:00)

Daily predictions for brighter satellites

Satellite Brightness Start Highest point End
(mag) Time Altitude Azimuth Time Altitude Azimuth Time Altitude Azimuth
Cosmos 2227 Rocket 2.8 11:33:46 10° S 11:38:53 36° ESE 11:43:58 10° NE
Cosmos 2219 3.2 11:35:35 10° SSW 11:41:18 81° ESE 11:47:03 10° NNE
Cosmos 405 3.9 11:39:18 10° NNE 11:42:14 26° E 11:45:11 10° SE
SL-4 R/B 3.4 11:39:47 10° S 11:43:01 21° SE 11:46:03 10° ENE
Skynet4D Del rocket 4.4 11:37:49 10° NW 11:44:38 70° NNE 11:52:27 10° ESE
Lacrosse 4 Rocket 1.8 11:43:00 10° N 11:46:46 38° ENE 11:50:35 10° SE
Cosmos 2360 Rocket 3.0 11:42:40 10° NNE 11:47:25 28° ENE 11:52:11 10° SE
H-2A R/B 3.9 11:44:03 10° S 11:47:35 47° W 11:51:07 10° NNW
YAOGAN 1 3.4 11:45:15 10° SE 11:48:57 28° ENE 11:52:37 10° NNE
Cosmos 2297 Rocket 2.4 11:43:59 10° S 11:49:27 51° ESE 11:54:55 10° NNE
Cosmos 2056 Rocket 3.8 11:44:26 10° S 11:49:34 46° ESE 11:54:42 10° NNE
ARIANE 5 R/B 2.9 11:47:25 10° WSW 11:50:22 22° S 11:52:06 10° SE
